PIA460 OPSD-OPIS

Flight info

Callsign PIA460
Flight time 0h 46m
Altitude 30000
Route BIREB DCT DELDA DCT KAPMI DCT BOBAM
Aircraft A320/M-SDE3FGHIRWY/LB1

Departure

Time 2026-05-06 19:56
Airport Skardu International Airport (OPSD)

Arrival

Time 2026-05-06 20:43
Airport Islamabad International Airport (OPIS)
Time Latitude Longitude Altitude Speed Heading
2026-05-06 19:39 35.33050 75.54107 7382 ft 0 kts 147°
2026-05-06 19:53 35.33051 75.54113 7383 ft 0 kts 99°
2026-05-06 19:53 35.33066 75.54143 7378 ft 12 kts 50°
2026-05-06 19:53 35.33150 75.54181 7378 ft 13 kts 20°
2026-05-06 19:54 35.33207 75.54267 7377 ft 13 kts 57°
2026-05-06 19:54 35.33212 75.54276 7377 ft 0 kts 56°
2026-05-06 19:54 35.33213 75.54278 7377 ft 2 kts 56°
2026-05-06 19:55 35.33236 75.54331 7379 ft 8 kts 70°
2026-05-06 19:55 35.33271 75.54366 7379 ft 6 kts 341°
2026-05-06 19:55 35.33287 75.54355 7378 ft 0 kts 328°
2026-05-06 19:55 35.33295 75.54349 7378 ft 7 kts 327°
2026-05-06 19:56 35.33559 75.54140 7377 ft 89 kts 327°
2026-05-06 19:56 35.34298 75.53553 7380 ft 162 kts 327°
2026-05-06 19:56 35.35334 75.52761 7826 ft 186 kts 328°
2026-05-06 19:56 35.36466 75.51887 8602 ft 197 kts 327°
2026-05-06 19:57 35.37608 75.50962 9262 ft 194 kts 326°
2026-05-06 19:57 35.38730 75.50029 9693 ft 200 kts 325°
2026-05-06 19:57 35.39890 75.49064 10208 ft 203 kts 325°
2026-05-06 19:57 35.41060 75.48088 10676 ft 204 kts 326°
2026-05-06 19:58 35.42082 75.46910 11247 ft 201 kts 306°
2026-05-06 19:58 35.42824 75.45468 11806 ft 199 kts 301°
2026-05-06 19:58 35.43546 75.44045 12339 ft 195 kts 306°
2026-05-06 19:58 35.44347 75.42722 12888 ft 193 kts 308°
2026-05-06 19:59 35.45181 75.41444 13423 ft 190 kts 310°
2026-05-06 19:59 35.46064 75.40257 13953 ft 189 kts 318°
2026-05-06 19:59 35.47116 75.39225 14288 ft 197 kts 326°
2026-05-06 19:59 35.48272 75.38287 14662 ft 201 kts 330°
2026-05-06 20:00 35.49507 75.37441 15060 ft 204 kts 334°
2026-05-06 20:00 35.50789 75.36638 15387 ft 210 kts 333°
2026-05-06 20:00 35.52090 75.35776 15744 ft 214 kts 334°
2026-05-06 20:00 35.53391 75.34884 16166 ft 215 kts 333°
2026-05-06 20:01 35.54694 75.33978 16597 ft 216 kts 333°
2026-05-06 20:01 35.56007 75.33056 17057 ft 218 kts 329°
2026-05-06 20:01 35.57071 75.31715 17503 ft 226 kts 301°
2026-05-06 20:01 35.57574 75.29867 17934 ft 231 kts 287°
2026-05-06 20:02 35.58034 75.27974 18184 ft 241 kts 291°
2026-05-06 20:02 35.58607 75.25947 18315 ft 261 kts 292°
2026-05-06 20:02 35.59238 75.23779 18430 ft 279 kts 292°
2026-05-06 20:02 35.59913 75.21441 18568 ft 302 kts 291°
2026-05-06 20:03 35.60629 75.18917 18697 ft 324 kts 291°
2026-05-06 20:03 35.61387 75.16212 18819 ft 345 kts 291°
2026-05-06 20:03 35.62179 75.13340 18936 ft 364 kts 290°
2026-05-06 20:03 35.62999 75.10325 19176 ft 378 kts 290°
2026-05-06 20:04 35.63833 75.07233 19662 ft 384 kts 290°
2026-05-06 20:04 35.64673 75.04106 20208 ft 387 kts 290°
2026-05-06 20:04 35.65522 75.00955 20777 ft 390 kts 290°
2026-05-06 20:04 35.66380 74.97778 21379 ft 393 kts 290°
2026-05-06 20:05 35.67244 74.94575 21964 ft 396 kts 290°
2026-05-06 20:05 35.68114 74.91347 22532 ft 399 kts 290°
2026-05-06 20:05 35.68990 74.88093 23115 ft 402 kts 290°
2026-05-06 20:05 35.69859 74.84806 23718 ft 406 kts 287°
2026-05-06 20:06 35.70372 74.81372 24218 ft 411 kts 276°
2026-05-06 20:06 35.70333 74.77834 24672 ft 416 kts 264°
2026-05-06 20:06 35.69730 74.74340 25117 ft 421 kts 253°
2026-05-06 20:06 35.68574 74.71020 25589 ft 424 kts 243°
2026-05-06 20:07 35.67195 74.67789 26025 ft 427 kts 243°
2026-05-06 20:07 35.65813 74.64547 26441 ft 429 kts 243°
2026-05-06 20:07 35.64420 74.61288 26839 ft 432 kts 243°
2026-05-06 20:07 35.63019 74.58010 27257 ft 434 kts 243°
2026-05-06 20:08 35.61612 74.54710 27673 ft 437 kts 243°
2026-05-06 20:08 35.60218 74.51436 28055 ft 440 kts 243°
2026-05-06 20:08 35.58794 74.48099 28459 ft 442 kts 243°
2026-05-06 20:08 35.57357 74.44747 28849 ft 445 kts 243°
2026-05-06 20:09 35.55914 74.41383 29224 ft 447 kts 243°
2026-05-06 20:09 35.54455 74.37987 29586 ft 450 kts 243°
2026-05-06 20:09 35.52992 74.34588 29912 ft 452 kts 243°
2026-05-06 20:09 35.51517 74.31156 30185 ft 454 kts 243°
2026-05-06 20:10 35.50060 74.27763 30224 ft 441 kts 243°
2026-05-06 20:10 35.48644 74.24472 30225 ft 438 kts 243°
2026-05-06 20:10 35.47204 74.21124 30217 ft 450 kts 243°
2026-05-06 20:10 35.45726 74.17697 30215 ft 458 kts 243°
2026-05-06 20:11 35.42714 74.10759 30211 ft 462 kts 241°
2026-05-06 20:11 35.40904 74.07505 30211 ft 463 kts 230°
2026-05-06 20:11 35.38679 74.04650 30203 ft 463 kts 225°
2026-05-06 20:12 35.34100 73.99097 30199 ft 460 kts 225°
2026-05-06 20:12 35.31871 73.96395 30207 ft 443 kts 226°
2026-05-06 20:12 35.29718 73.93785 30209 ft 430 kts 226°
2026-05-06 20:13 35.25494 73.88658 30209 ft 425 kts 226°
2026-05-06 20:13 35.21328 73.83612 30208 ft 424 kts 226°
2026-05-06 20:14 35.17134 73.78548 30202 ft 424 kts 226°
2026-05-06 20:14 35.12931 73.73480 30217 ft 424 kts 226°
2026-05-06 20:15 35.08727 73.68418 30207 ft 424 kts 226°
2026-05-06 20:15 35.04527 73.63368 30165 ft 424 kts 227°
2026-05-06 20:16 35.00324 73.58314 30171 ft 425 kts 227°
2026-05-06 20:16 34.96096 73.53250 30112 ft 425 kts 226°
2026-05-06 20:17 34.91899 73.48227 30120 ft 422 kts 226°
2026-05-06 20:17 34.87710 73.43217 30105 ft 422 kts 226°
2026-05-06 20:18 34.83546 73.38235 30110 ft 422 kts 227°
2026-05-06 20:18 34.79342 73.33232 29977 ft 422 kts 226°
2026-05-06 20:19 34.77258 73.30756 29683 ft 416 kts 226°
2026-05-06 20:19 34.75199 73.28306 29378 ft 414 kts 228°
2026-05-06 20:19 34.73142 73.25857 29109 ft 413 kts 227°
2026-05-06 20:19 34.71093 73.23422 28837 ft 411 kts 227°
2026-05-06 20:20 34.69050 73.21000 28537 ft 409 kts 227°
2026-05-06 20:20 34.67019 73.18592 28247 ft 407 kts 227°
2026-05-06 20:20 34.64993 73.16191 27984 ft 405 kts 227°
2026-05-06 20:20 34.62980 73.13810 27723 ft 404 kts 227°
2026-05-06 20:21 34.60860 73.11571 27457 ft 403 kts 217°
2026-05-06 20:21 34.59284 73.10384 27224 ft 402 kts 209°
2026-05-06 20:21 34.56696 73.09127 26792 ft 401 kts 195°
2026-05-06 20:21 34.53949 73.08558 26456 ft 403 kts 184°
2026-05-06 20:22 34.51145 73.08594 26143 ft 403 kts 178°
2026-05-06 20:22 34.48346 73.08726 25818 ft 402 kts 178°
2026-05-06 20:22 34.45561 73.08850 25486 ft 399 kts 178°
2026-05-06 20:22 34.42794 73.08971 25166 ft 396 kts 178°
2026-05-06 20:23 34.40041 73.09089 24869 ft 394 kts 178°
2026-05-06 20:23 34.37307 73.09206 24555 ft 392 kts 178°
2026-05-06 20:23 34.34595 73.09324 24234 ft 389 kts 178°
2026-05-06 20:23 34.31895 73.09442 23916 ft 387 kts 178°
2026-05-06 20:24 34.29210 73.09562 23609 ft 386 kts 178°
2026-05-06 20:24 34.26529 73.09686 23263 ft 384 kts 178°
2026-05-06 20:24 34.23869 73.09808 22948 ft 381 kts 178°
2026-05-06 20:24 34.21223 73.09928 22635 ft 379 kts 178°
2026-05-06 20:25 34.18593 73.10045 22331 ft 377 kts 178°
2026-05-06 20:25 34.15981 73.10162 22025 ft 374 kts 177°
2026-05-06 20:25 34.13386 73.10277 21726 ft 372 kts 177°
2026-05-06 20:25 34.10842 73.10386 21433 ft 370 kts 177°
2026-05-06 20:26 34.08274 73.10496 21144 ft 367 kts 177°
2026-05-06 20:26 34.05733 73.10606 20836 ft 365 kts 177°
2026-05-06 20:26 34.03194 73.10717 20544 ft 365 kts 178°
2026-05-06 20:26 34.00661 73.10827 20247 ft 363 kts 177°
2026-05-06 20:27 33.98135 73.10937 19959 ft 361 kts 177°
2026-05-06 20:27 33.95636 73.11047 19660 ft 359 kts 177°
2026-05-06 20:27 33.93142 73.11158 19372 ft 357 kts 177°
2026-05-06 20:27 33.90668 73.11267 19089 ft 355 kts 177°
2026-05-06 20:28 33.88212 73.11377 18802 ft 352 kts 177°
2026-05-06 20:28 33.85763 73.11487 18512 ft 350 kts 177°
2026-05-06 20:28 33.83334 73.11596 18229 ft 348 kts 177°
2026-05-06 20:28 33.80917 73.11704 17925 ft 347 kts 177°
2026-05-06 20:29 33.78509 73.11811 17655 ft 346 kts 177°
2026-05-06 20:29 33.76109 73.11915 17388 ft 345 kts 177°
2026-05-06 20:29 33.73703 73.12018 17112 ft 344 kts 178°
2026-05-06 20:29 33.71313 73.12120 16854 ft 343 kts 178°
2026-05-06 20:30 33.68932 73.12221 16593 ft 342 kts 178°
2026-05-06 20:30 33.64224 73.12429 16084 ft 339 kts 178°
2026-05-06 20:30 33.61866 73.12531 15843 ft 338 kts 178°
2026-05-06 20:31 33.59533 73.12614 15620 ft 332 kts 181°
2026-05-06 20:31 33.57300 73.12069 15334 ft 326 kts 205°
2026-05-06 20:31 33.55463 73.10563 15089 ft 317 kts 229°
2026-05-06 20:31 33.54287 73.08402 14840 ft 307 kts 251°
2026-05-06 20:32 33.53582 73.06035 14678 ft 295 kts 253°
2026-05-06 20:32 33.52907 73.03744 14265 ft 289 kts 253°
2026-05-06 20:32 33.52240 73.01487 13797 ft 286 kts 253°
2026-05-06 20:32 33.51578 72.99252 13273 ft 283 kts 253°
2026-05-06 20:33 33.50921 72.97038 12742 ft 281 kts 253°
2026-05-06 20:33 33.50269 72.94844 12212 ft 278 kts 253°
2026-05-06 20:33 33.49620 72.92671 11687 ft 276 kts 253°
2026-05-06 20:33 33.48978 72.90520 11186 ft 273 kts 253°
2026-05-06 20:34 33.48342 72.88396 10698 ft 270 kts 253°
2026-05-06 20:34 33.47713 72.86289 10188 ft 267 kts 253°
2026-05-06 20:34 33.47093 72.84205 9689 ft 264 kts 253°
2026-05-06 20:34 33.46481 72.82141 9139 ft 261 kts 253°
2026-05-06 20:35 33.46086 72.80054 8581 ft 254 kts 269°
2026-05-06 20:35 33.46201 72.77971 8022 ft 249 kts 282°
2026-05-06 20:35 33.46497 72.75955 7570 ft 249 kts 281°
2026-05-06 20:35 33.46788 72.73929 7296 ft 245 kts 281°
2026-05-06 20:36 33.47073 72.71933 7059 ft 242 kts 281°
2026-05-06 20:36 33.47355 72.69950 6829 ft 241 kts 280°
2026-05-06 20:36 33.47634 72.67975 6600 ft 240 kts 280°
2026-05-06 20:36 33.47911 72.66007 6373 ft 239 kts 280°
2026-05-06 20:37 33.48187 72.64045 6142 ft 238 kts 279°
2026-05-06 20:37 33.48461 72.62095 5898 ft 238 kts 280°
2026-05-06 20:37 33.49024 72.60254 5685 ft 236 kts 305°
2026-05-06 20:37 33.50258 72.58967 5451 ft 240 kts 334°
2026-05-06 20:38 33.51880 72.58572 5192 ft 242 kts
2026-05-06 20:38 33.53527 72.59049 4935 ft 245 kts 15°
2026-05-06 20:38 33.55141 72.59647 4712 ft 240 kts 15°
2026-05-06 20:38 33.56681 72.60323 4550 ft 232 kts 31°
2026-05-06 20:39 33.57695 72.61751 4502 ft 223 kts 70°
2026-05-06 20:39 33.57795 72.63544 4391 ft 215 kts 99°
2026-05-06 20:39 33.57521 72.65275 4145 ft 209 kts 102°
2026-05-06 20:39 33.57243 72.66967 3863 ft 204 kts 101°
2026-05-06 20:40 33.56987 72.68598 3607 ft 193 kts 101°
2026-05-06 20:40 33.56750 72.70120 3370 ft 179 kts 101°
2026-05-06 20:40 33.56529 72.71543 3153 ft 167 kts 101°
2026-05-06 20:40 33.56323 72.72869 2961 ft 157 kts 101°
2026-05-06 20:41 33.56128 72.74125 2765 ft 151 kts 101°
2026-05-06 20:41 33.55937 72.75349 2584 ft 148 kts 101°
2026-05-06 20:41 33.55752 72.76538 2418 ft 142 kts 101°
2026-05-06 20:41 33.55576 72.77669 2248 ft 139 kts 101°
2026-05-06 20:42 33.55397 72.78817 2074 ft 138 kts 101°
2026-05-06 20:42 33.55220 72.79923 1899 ft 136 kts 101°
2026-05-06 20:42 33.55047 72.81028 1767 ft 130 kts 99°
2026-05-06 20:42 33.54905 72.81950 1754 ft 90 kts 101°
2026-05-06 20:43 33.54820 72.82485 1750 ft 41 kts 100°
2026-05-06 20:43 33.54777 72.82767 1754 ft 31 kts 101°
2026-05-06 20:43 33.54764 72.82942 1765 ft 17 kts 83°
2026-05-06 20:43 33.54796 72.83082 1765 ft 17 kts 64°
2026-05-06 20:44 33.54834 72.83196 1765 ft 13 kts 62°
2026-05-06 20:44 33.54858 72.83295 1765 ft 10 kts 75°
2026-05-06 20:44 33.54872 72.83387 1764 ft 12 kts 84°
2026-05-06 20:44 33.54927 72.83462 1769 ft 13 kts 22°
2026-05-06 20:45 33.55012 72.83484 1771 ft 12 kts 11°
2026-05-06 20:45 33.55089 72.83502 1770 ft 11 kts 11°
2026-05-06 20:45 33.55159 72.83518 1771 ft 10 kts 11°
2026-05-06 20:45 33.55219 72.83532 1771 ft 8 kts 11°
2026-05-06 20:46 33.55281 72.83546 1770 ft 10 kts
2026-05-06 20:46 33.55334 72.83514 1771 ft 8 kts 319°
2026-05-06 20:46 33.55367 72.83509 1772 ft 4 kts
2026-05-06 20:46 33.55391 72.83514 1770 ft 3 kts 10°
2026-05-06 20:47 33.55408 72.83517 1771 ft 2 kts 10°
2026-05-06 20:47 33.55412 72.83518 1770 ft 0 kts 10°